Roanoke, VA

4:40 AM EST on November 22, 2019 (GMT -0500)
Roanoke Regional-Woodrum

Weather History for KROA - September, 2019

Change the Weather History Date:

Tuesday, September 24, 2019

  Actual Average Record
Temperature  
Mean Temperature 73 °F 65 °F  
Max Temperature 85 °F 75 °F 95 °F (1933)
Min Temperature 60 °F 54 °F 34 °F (1983)
Degree Days  
Heating Degree Days 0 3  
Month to date heating degree days 1 25  
Since 1 July heating degree days 1 26  
Cooling Degree Days 8 3  
Month to date cooling degree days 255 127  
Year to date cooling degree days 1618 1174  
Growing Degree Days 25 (Base 50)    
Moisture  
Dew Point 50 °F    
Average Humidity 49    
Maximum Humidity 78    
Minimum Humidity 19    
Precipitation  
Precipitation 0.00 in 0.11 in 1.74 in (1947)
Month to date precipitation 0.80 3.19  
Year to date precipitation 31.50 31.32  
Snow  
Snow 0.00 in - - ()
Month to date snowfall 0.0  
Since 1 July snowfall T  
Since 1 September snowfall 0.0  
Snow Depth 0.00 in    
Sea Level Pressure  
Sea Level Pressure 29.93 in    
Wind  
Wind Speed 6 mph (NW)    
Max Wind Speed 17 mph    
Max Gust Speed 21 mph    
Visibility 10 miles    
Events      
T = Trace of Precipitation, MM = Missing Value Source: NWS Daily Summary

Daily Weather History Graph

Daily Weather History Graph

Search for Another Location

Airport or City:

Astronomy

Sep. 24, 2019 Rise Set
Actual Time 7:09 AM EDT 7:14 PM EDT
Civil Twilight 6:43 AM EDT 7:40 PM EDT
Nautical Twilight 6:12 AM EDT 8:10 PM EDT
Astronomical Twilight 5:42 AM EDT 8:41 PM EDT
Moon 2:00 AM EDT (9/24) 4:51 PM EDT (9/24)
Length of Visible Light 12h 56m
Length of Day
12h 04m
Waning Crescent, 23% of the Moon is Illuminated
Sep 24
Waning Crescent
Sep 28
New
Oct 5
First Quarter
Oct 13
Full
Oct 21
Last Quarter

Hourly Weather History & Observations

Time (EDT) Temp. Dew Point Humidity Pressure Visibility Wind Dir Wind Speed Gust Speed Precip Events Conditions
12:54 AM 72.0 °F 63.0 °F 73% 29.92 in 10.0 mi Calm Calm - N/A   Clear
1:54 AM 69.1 °F 62.1 °F 78% 29.92 in 10.0 mi WNW 3.5 mph - N/A   Clear
2:54 AM 69.1 °F 62.1 °F 78% 29.91 in 10.0 mi Calm Calm - N/A   Clear
3:54 AM 70.0 °F 60.1 °F 71% 29.91 in 10.0 mi Calm Calm - N/A   Clear
4:54 AM 70.0 °F 60.1 °F 71% 29.92 in 10.0 mi Calm Calm - N/A   Partly Cloudy
5:54 AM 68.0 °F 57.9 °F 70% 29.93 in 10.0 mi Calm Calm - N/A   Clear
6:54 AM 66.9 °F 55.9 °F 68% 29.94 in 10.0 mi Calm Calm - N/A   Clear
7:54 AM 69.1 °F 57.0 °F 65% 29.95 in 10.0 mi NNW 6.9 mph - N/A   Clear
8:54 AM 72.0 °F 55.9 °F 57% 29.96 in 10.0 mi NW 5.8 mph - N/A   Partly Cloudy
9:54 AM 73.0 °F 54.0 °F 51% 29.97 in 10.0 mi West 3.5 mph - N/A   Partly Cloudy
10:54 AM 75.9 °F 48.9 °F 38% 29.98 in 10.0 mi NNW 13.8 mph 19.6 mph N/A   Partly Cloudy
11:54 AM 79.0 °F 46.9 °F 32% 29.97 in 10.0 mi NNW 11.5 mph - N/A   Clear
12:54 PM 81.0 °F 46.0 °F 29% 29.94 in 10.0 mi NNE 10.4 mph - N/A   Clear
1:54 PM 82.0 °F 44.1 °F 26% 29.92 in 10.0 mi North - - N/A   Clear
2:03 PM 82.0 °F 44.1 °F 26% 29.95 in 10.0 mi Variable 5.8 mph - N/A   Clear
2:54 PM 82.0 °F 42.1 °F 24% 29.89 in 10.0 mi West 9.2 mph - N/A   Clear
3:54 PM 84.0 °F 37.9 °F 19% 29.87 in 10.0 mi NNW 6.9 mph - N/A   Clear
4:54 PM 84.0 °F 37.0 °F 19% 29.87 in 10.0 mi West 9.2 mph - N/A   Clear
5:54 PM 82.9 °F 37.9 °F 20% 29.88 in 10.0 mi West 9.2 mph - N/A   Clear
6:54 PM 77.0 °F 41.0 °F 28% 29.90 in 10.0 mi NNW 10.4 mph - N/A   Clear
7:54 PM 73.0 °F 41.0 °F 31% 29.91 in 10.0 mi NNW 9.2 mph - N/A   Clear
8:54 PM 72.0 °F 43.0 °F 35% 29.93 in 10.0 mi NNE 6.9 mph - N/A   Clear
9:54 PM 70.0 °F 44.1 °F 39% 29.96 in 10.0 mi Calm Calm - N/A   Clear
10:54 PM 66.9 °F 46.0 °F 47% 29.96 in 10.0 mi North 10.4 mph - N/A   Clear
11:54 PM 63.0 °F 46.9 °F 56% 29.96 in 10.0 mi WNW 3.5 mph - N/A   Clear